Time,TemperatureF,DewpointF,PressureIn,WindDirection,WindDirectionDegrees,WindSpeedMPH,WindSpeedGustMPH,Humidity,HourlyPrecipIn,Conditions,Clouds,dailyrainin,SoftwareType,DateUTC
2013-03-10 00:02:00,21.0,19.0,-100.00,SE,145,6.0,8.0,93,-99.99,,,0.00,,2013-03-10 07:02:00,
2013-03-10 00:11:00,21.0,19.0,-100.00,SE,135,7.0,8.0,94,-99.99,,,0.00,,2013-03-10 07:11:00,
2013-03-10 00:21:00,21.0,19.0,-100.00,SE,135,7.0,8.0,94,-99.99,,,0.00,,2013-03-10 07:21:00,
2013-03-10 00:32:00,19.0,18.0,-100.00,ESE,115,6.0,6.0,95,-99.99,,,0.00,,2013-03-10 07:32:00,
2013-03-10 00:42:00,19.0,18.0,-100.00,ESE,115,6.0,6.0,95,-99.99,,,0.00,,2013-03-10 07:42:00,
2013-03-10 00:52:00,19.0,18.0,-100.00,ESE,115,5.0,6.0,95,-99.99,,,0.00,,2013-03-10 07:52:00,
2013-03-10 01:01:00,19.0,18.0,-100.00,ESE,115,5.0,6.0,95,-99.99,,,0.00,,2013-03-10 08:01:00,
2013-03-10 01:11:00,19.0,18.0,-100.00,SE,125,5.0,5.0,95,-99.99,,,0.00,,2013-03-10 08:11:00,
2013-03-10 01:21:00,19.0,18.0,-100.00,SE,125,5.0,5.0,95,-99.99,,,0.00,,2013-03-10 08:21:00,
2013-03-10 01:31:00,19.0,18.0,-100.00,ESE,110,6.0,7.0,96,-99.99,,,0.00,,2013-03-10 08:31:00,
2013-03-10 01:42:00,19.0,18.0,-100.00,ESE,110,6.0,7.0,96,-99.99,,,0.00,,2013-03-10 08:42:00,
2013-03-10 01:51:00,19.0,18.0,-100.00,SSE,155,6.0,6.0,96,-99.99,,,0.00,,2013-03-10 08:51:00,
2013-03-10 03:01:00,19.0,18.0,-100.00,SSE,155,6.0,6.0,96,-99.99,,,0.00,,2013-03-10 09:01:00,
2013-03-10 03:11:00,19.0,18.0,-100.00,SSE,150,5.0,6.0,96,-99.99,,,0.00,,2013-03-10 09:11:00,
2013-03-10 03:21:00,19.0,18.0,-100.00,SSE,150,5.0,6.0,96,-99.99,,,0.00,,2013-03-10 09:21:00,
2013-03-10 03:31:00,18.0,17.0,-100.00,SE,125,1.0,1.0,96,-99.99,,,0.00,,2013-03-10 09:31:00,
2013-03-10 03:41:00,18.0,17.0,-100.00,SE,125,1.0,1.0,96,-99.99,,,0.00,,2013-03-10 09:41:00,
2013-03-10 03:51:00,17.0,16.0,-100.00,ENE,70,3.0,3.0,96,-99.99,,,0.00,,2013-03-10 09:51:00,
2013-03-10 04:01:00,17.0,16.0,-100.00,ENE,70,3.0,3.0,96,-99.99,,,0.00,,2013-03-10 10:01:00,
2013-03-10 04:11:00,16.0,15.0,-100.00,NE,45,2.0,2.0,96,-99.99,,,0.00,,2013-03-10 10:11:00,
2013-03-10 04:21:00,16.0,15.0,-100.00,NE,45,2.0,2.0,96,-99.99,,,0.00,,2013-03-10 10:21:00,
2013-03-10 04:32:00,16.0,15.0,-100.00,East,85,1.0,2.0,96,-99.99,,,0.00,,2013-03-10 10:32:00,
2013-03-10 04:42:00,16.0,15.0,-100.00,East,85,1.0,2.0,96,-99.99,,,0.00,,2013-03-10 10:42:00,
2013-03-10 04:52:00,16.0,15.0,-100.00,East,80,3.0,3.0,96,-99.99,,,0.00,,2013-03-10 10:52:00,
2013-03-10 05:01:00,16.0,15.0,-100.00,East,80,3.0,3.0,96,-99.99,,,0.00,,2013-03-10 11:01:00,
2013-03-10 05:12:00,16.0,15.0,-100.00,ENE,70,3.0,3.0,96,-99.99,,,0.00,,2013-03-10 11:12:00,
2013-03-10 05:21:00,16.0,15.0,-100.00,ENE,70,3.0,3.0,96,-99.99,,,0.00,,2013-03-10 11:21:00,
2013-03-10 05:32:00,16.0,15.0,-100.00,ENE,60,4.0,4.0,96,-99.99,,,0.00,,2013-03-10 11:32:00,
2013-03-10 05:42:00,16.0,15.0,-100.00,ENE,60,4.0,4.0,96,-99.99,,,0.00,,2013-03-10 11:42:00,
2013-03-10 05:52:00,17.0,16.0,-100.00,NE,55,3.0,3.0,96,-99.99,,,0.00,,2013-03-10 11:52:00,
2013-03-10 06:01:00,17.0,16.0,-100.00,NE,55,3.0,3.0,96,-99.99,,,0.00,,2013-03-10 12:01:00,
2013-03-10 06:11:00,17.0,16.0,-100.00,NE,40,4.0,4.0,97,-99.99,,,0.00,,2013-03-10 12:11:00,
2013-03-10 06:21:00,17.0,16.0,-100.00,NE,40,4.0,4.0,97,-99.99,,,0.00,,2013-03-10 12:21:00,
2013-03-10 06:31:00,17.0,16.0,-100.00,ENE,70,4.0,4.0,97,-99.99,,,0.00,,2013-03-10 12:31:00,
2013-03-10 06:42:00,17.0,16.0,-100.00,ENE,70,4.0,4.0,97,-99.99,,,0.00,,2013-03-10 12:42:00,
2013-03-10 06:51:00,17.0,17.0,-100.00,NE,55,6.0,6.0,97,-99.99,,,0.00,,2013-03-10 12:51:00,
2013-03-10 07:01:00,17.0,17.0,-100.00,NE,55,6.0,6.0,97,-99.99,,,0.00,,2013-03-10 13:01:00,
2013-03-10 07:11:00,17.0,17.0,-100.00,NE,55,6.0,6.0,97,-99.99,,,0.00,,2013-03-10 13:11:00,
2013-03-10 07:21:00,17.0,17.0,-100.00,NE,55,6.0,6.0,97,-99.99,,,0.00,,2013-03-10 13:21:00,
2013-03-10 07:31:00,17.0,16.0,-100.00,East,85,5.0,6.0,96,-99.99,,,0.00,,2013-03-10 13:31:00,
2013-03-10 07:41:00,17.0,16.0,-100.00,East,85,5.0,6.0,96,-99.99,,,0.00,,2013-03-10 13:41:00,
2013-03-10 07:52:00,16.0,15.0,-100.00,ENE,65,4.0,4.0,96,-99.99,,,0.00,,2013-03-10 13:52:00,
2013-03-10 08:01:00,16.0,15.0,-100.00,ENE,65,4.0,4.0,96,-99.99,,,0.00,,2013-03-10 14:01:00,
2013-03-10 08:11:00,17.0,16.0,-100.00,ENE,75,4.0,5.0,96,-99.99,,,0.00,,2013-03-10 14:11:00,
2013-03-10 08:21:00,17.0,16.0,-100.00,ENE,75,4.0,5.0,96,-99.99,,,0.00,,2013-03-10 14:21:00,
2013-03-10 08:32:00,22.0,21.0,-100.00,NE,50,1.0,2.0,96,-99.99,,,0.00,,2013-03-10 14:32:00,
2013-03-10 08:41:00,22.0,21.0,-100.00,NE,50,1.0,2.0,96,-99.99,,,0.00,,2013-03-10 14:41:00,
2013-03-10 08:51:00,22.0,21.0,-100.00,NW,310,2.0,2.0,95,-99.99,,,0.00,,2013-03-10 14:51:00,
2013-03-10 09:01:00,22.0,21.0,-100.00,NW,310,2.0,2.0,95,-99.99,,,0.00,,2013-03-10 15:01:00,
2013-03-10 09:11:00,20.0,19.0,-100.00,NW,320,3.0,4.0,95,-99.99,,,0.00,,2013-03-10 15:11:00,
2013-03-10 09:21:00,20.0,19.0,-100.00,NW,320,3.0,4.0,95,-99.99,,,0.00,,2013-03-10 15:21:00,
2013-03-10 09:32:00,23.0,21.0,-100.00,NNW,345,3.0,4.0,91,-99.99,,,0.00,,2013-03-10 15:32:00,
2013-03-10 09:42:00,23.0,21.0,-100.00,NNW,345,3.0,4.0,91,-99.99,,,0.00,,2013-03-10 15:42:00,
2013-03-10 09:51:00,24.0,21.0,-100.00,NNW,340,4.0,4.0,85,-99.99,,,0.00,,2013-03-10 15:51:00,
2013-03-10 10:01:00,24.0,21.0,-100.00,NNW,340,4.0,4.0,85,-99.99,,,0.00,,2013-03-10 16:01:00,
2013-03-10 10:12:00,25.0,20.0,-100.00,NNE,30,4.0,6.0,80,-99.99,,,0.00,,2013-03-10 16:12:00,
2013-03-10 10:21:00,25.0,20.0,-100.00,NNE,30,4.0,6.0,80,-99.99,,,0.00,,2013-03-10 16:21:00,
2013-03-10 10:32:00,25.0,20.0,-100.00,NNE,30,4.0,6.0,80,-99.99,,,0.00,,2013-03-10 16:32:00,
2013-03-10 11:51:00,31.0,17.0,-100.00,NE,50,5.0,6.0,56,-99.99,,,0.00,,2013-03-10 17:51:00,
2013-03-10 12:01:00,31.0,17.0,-100.00,NE,50,5.0,6.0,56,-99.99,,,0.00,,2013-03-10 18:01:00,
2013-03-10 12:11:00,31.0,17.0,-100.00,North,0,5.0,6.0,54,-99.99,,,0.00,,2013-03-10 18:11:00,
2013-03-10 12:21:00,31.0,17.0,-100.00,North,0,5.0,6.0,54,-99.99,,,0.00,,2013-03-10 18:21:00,
2013-03-10 12:32:00,31.0,17.0,-100.00,North,0,5.0,6.0,54,-99.99,,,0.00,,2013-03-10 18:32:00,
2013-03-10 12:52:00,34.0,16.0,-100.00,NNW,330,6.0,8.0,49,-99.99,,,0.00,,2013-03-10 18:52:00,
2013-03-10 13:01:00,34.0,16.0,-100.00,NNW,330,6.0,8.0,49,-99.99,,,0.00,,2013-03-10 19:01:00,
2013-03-10 13:11:00,34.0,16.0,-100.00,North,0,6.0,8.0,46,-99.99,,,0.00,,2013-03-10 19:11:00,
2013-03-10 13:21:00,34.0,16.0,-100.00,North,0,6.0,8.0,46,-99.99,,,0.00,,2013-03-10 19:21:00,
2013-03-10 13:32:00,36.0,15.0,-100.00,North,0,4.0,6.0,41,-99.99,,,0.00,,2013-03-10 19:32:00,
2013-03-10 13:42:00,36.0,15.0,-100.00,North,0,4.0,6.0,41,-99.99,,,0.00,,2013-03-10 19:42:00,
2013-03-10 13:52:00,37.0,13.0,-100.00,North,0,6.0,8.0,38,-99.99,,,0.00,,2013-03-10 19:52:00,
2013-03-10 14:02:00,37.0,13.0,-100.00,North,0,6.0,8.0,38,-99.99,,,0.00,,2013-03-10 20:02:00,
2013-03-10 14:12:00,38.0,15.0,-100.00,NE,50,2.0,3.0,38,-99.99,,,0.00,,2013-03-10 20:12:00,
2013-03-10 14:22:00,38.0,15.0,-100.00,NE,50,2.0,3.0,38,-99.99,,,0.00,,2013-03-10 20:22:00,
2013-03-10 14:32:00,39.0,15.0,-100.00,NNE,20,5.0,7.0,37,-99.99,,,0.00,,2013-03-10 20:32:00,
2013-03-10 14:42:00,39.0,15.0,-100.00,NNE,20,5.0,7.0,37,-99.99,,,0.00,,2013-03-10 20:42:00,
2013-03-10 14:52:00,39.0,15.0,-100.00,NNE,30,4.0,8.0,37,-99.99,,,0.00,,2013-03-10 20:52:00,
2013-03-10 15:02:00,39.0,15.0,-100.00,NNE,30,4.0,8.0,37,-99.99,,,0.00,,2013-03-10 21:02:00,
2013-03-10 15:12:00,40.0,16.0,-100.00,North,0,5.0,6.0,37,-99.99,,,0.00,,2013-03-10 21:12:00,
2013-03-10 15:22:00,40.0,16.0,-100.00,North,0,5.0,6.0,37,-99.99,,,0.00,,2013-03-10 21:22:00,
2013-03-10 15:32:00,42.0,17.0,-100.00,NNE,30,4.0,6.0,36,-99.99,,,0.00,,2013-03-10 21:32:00,
2013-03-10 15:42:00,42.0,17.0,-100.00,NNE,30,4.0,6.0,36,-99.99,,,0.00,,2013-03-10 21:42:00,
2013-03-10 15:52:00,43.0,18.0,-100.00,ENE,70,8.0,9.0,36,-99.99,,,0.00,,2013-03-10 21:52:00,
2013-03-10 16:02:00,43.0,18.0,-100.00,ENE,70,8.0,9.0,36,-99.99,,,0.00,,2013-03-10 22:02:00,
2013-03-10 16:12:00,43.0,18.0,-100.00,ENE,70,8.0,9.0,36,-99.99,,,0.00,,2013-03-10 22:12:00,
2013-03-10 16:32:00,44.0,17.0,-100.00,ESE,105,5.0,6.0,34,-99.99,,,0.00,,2013-03-10 22:32:00,
2013-03-10 16:43:00,44.0,17.0,-100.00,ESE,105,5.0,6.0,34,-99.99,,,0.00,,2013-03-10 22:43:00,
2013-03-10 16:52:00,45.0,18.0,-100.00,ESE,120,5.0,6.0,33,-99.99,,,0.00,,2013-03-10 22:52:00,
2013-03-10 17:03:00,45.0,18.0,-100.00,ESE,120,5.0,6.0,33,-99.99,,,0.00,,2013-03-10 23:03:00,
2013-03-10 17:12:00,46.0,18.0,-100.00,East,90,3.0,4.0,32,-99.99,,,0.00,,2013-03-10 23:12:00,
2013-03-10 17:23:00,46.0,18.0,-100.00,East,90,3.0,4.0,32,-99.99,,,0.00,,2013-03-10 23:23:00,
2013-03-10 17:32:00,45.0,17.0,-100.00,NW,320,2.0,3.0,32,-99.99,,,0.00,,2013-03-10 23:32:00,
2013-03-10 17:42:00,45.0,17.0,-100.00,NW,320,2.0,3.0,32,-99.99,,,0.00,,2013-03-10 23:42:00,
2013-03-10 17:52:00,45.0,17.0,-100.00,East,85,4.0,5.0,32,-99.99,,,0.00,,2013-03-10 23:52:00,
2013-03-10 18:02:00,45.0,17.0,-100.00,East,85,4.0,5.0,32,-99.99,,,0.00,,2013-03-11 00:02:00,
2013-03-10 18:12:00,43.0,16.0,-100.00,NE,40,4.0,4.0,33,-99.99,,,0.00,,2013-03-11 00:12:00,
2013-03-10 18:23:00,43.0,16.0,-100.00,NE,40,4.0,4.0,33,-99.99,,,0.00,,2013-03-11 00:23:00,
2013-03-10 18:33:00,41.0,16.0,-100.00,NNE,15,2.0,2.0,35,-99.99,,,0.00,,2013-03-11 00:33:00,
2013-03-10 18:43:00,41.0,16.0,-100.00,NNE,15,2.0,2.0,35,-99.99,,,0.00,,2013-03-11 00:43:00,
2013-03-10 18:52:00,41.0,16.0,-100.00,North,0,2.0,2.0,36,-99.99,,,0.00,,2013-03-11 00:52:00,
2013-03-10 19:02:00,41.0,16.0,-100.00,North,0,2.0,2.0,36,-99.99,,,0.00,,2013-03-11 01:02:00,
2013-03-10 19:13:00,40.0,16.0,-100.00,NNW,330,3.0,3.0,37,-99.99,,,0.00,,2013-03-11 01:13:00,
2013-03-10 19:23:00,40.0,16.0,-100.00,NNW,330,3.0,3.0,37,-99.99,,,0.00,,2013-03-11 01:23:00,
2013-03-10 19:32:00,38.0,16.0,-100.00,NNW,330,4.0,4.0,40,-99.99,,,0.00,,2013-03-11 01:32:00,
2013-03-10 19:42:00,38.0,16.0,-100.00,NNW,330,4.0,4.0,40,-99.99,,,0.00,,2013-03-11 01:42:00,
2013-03-10 19:52:00,38.0,17.0,-100.00,NW,325,4.0,4.0,42,-99.99,,,0.00,,2013-03-11 01:52:00,
2013-03-10 20:02:00,38.0,17.0,-100.00,NW,325,4.0,4.0,42,-99.99,,,0.00,,2013-03-11 02:02:00,
2013-03-10 20:12:00,37.0,17.0,-100.00,NW,315,3.0,4.0,43,-99.99,,,0.00,,2013-03-11 02:12:00,
2013-03-10 20:22:00,37.0,17.0,-100.00,NW,315,3.0,4.0,43,-99.99,,,0.00,,2013-03-11 02:22:00,
2013-03-10 20:32:00,37.0,17.0,-100.00,NW,320,4.0,4.0,44,-99.99,,,0.00,,2013-03-11 02:32:00,
2013-03-10 20:42:00,37.0,17.0,-100.00,NW,320,4.0,4.0,44,-99.99,,,0.00,,2013-03-11 02:42:00,
2013-03-10 20:52:00,37.0,18.0,-100.00,NW,315,3.0,4.0,45,-99.99,,,0.00,,2013-03-11 02:52:00,
2013-03-10 21:02:00,37.0,18.0,-100.00,NW,315,3.0,4.0,45,-99.99,,,0.00,,2013-03-11 03:02:00,
2013-03-10 21:12:00,37.0,18.0,-100.00,North,350,5.0,6.0,46,-99.99,,,0.00,,2013-03-11 03:12:00,
2013-03-10 21:22:00,37.0,18.0,-100.00,North,350,5.0,6.0,46,-99.99,,,0.00,,2013-03-11 03:22:00,
2013-03-10 21:32:00,38.0,18.0,-100.00,NNW,340,6.0,8.0,45,-99.99,,,0.00,,2013-03-11 03:32:00,
2013-03-10 21:42:00,38.0,18.0,-100.00,NNW,340,6.0,8.0,45,-99.99,,,0.00,,2013-03-11 03:42:00,
2013-03-10 21:52:00,38.0,18.0,-100.00,NNW,345,6.0,8.0,45,-99.99,,,0.00,,2013-03-11 03:52:00,
2013-03-10 22:02:00,38.0,18.0,-100.00,NNW,345,6.0,8.0,45,-99.99,,,0.00,,2013-03-11 04:02:00,
2013-03-10 22:12:00,38.0,19.0,-100.00,NNW,345,6.0,8.0,45,-99.99,,,0.00,,2013-03-11 04:12:00,
2013-03-10 22:22:00,38.0,19.0,-100.00,NNW,345,6.0,8.0,45,-99.99,,,0.00,,2013-03-11 04:22:00,
2013-03-10 22:32:00,38.0,18.0,-100.00,North,0,6.0,8.0,44,-99.99,,,0.00,,2013-03-11 04:32:00,
2013-03-10 22:42:00,38.0,18.0,-100.00,North,0,6.0,8.0,44,-99.99,,,0.00,,2013-03-11 04:42:00,
2013-03-10 22:52:00,39.0,19.0,-100.00,North,0,6.0,7.0,44,-99.99,,,0.00,,2013-03-11 04:52:00,
2013-03-10 23:03:00,39.0,19.0,-100.00,North,0,6.0,7.0,44,-99.99,,,0.00,,2013-03-11 05:03:00,
2013-03-10 23:12:00,39.0,18.0,-100.00,North,350,8.0,10.0,43,-99.99,,,0.00,,2013-03-11 05:12:00,
2013-03-10 23:22:00,39.0,18.0,-100.00,North,350,8.0,10.0,43,-99.99,,,0.00,,2013-03-11 05:22:00,
2013-03-10 23:32:00,38.0,18.0,-100.00,North,0,5.0,7.0,44,-99.99,,,0.00,,2013-03-11 05:32:00,
2013-03-10 23:42:00,38.0,18.0,-100.00,North,0,5.0,7.0,44,-99.99,,,0.00,,2013-03-11 05:42:00,
2013-03-10 23:52:00,39.0,19.0,-100.00,North,355,6.0,8.0,44,-99.99,,,0.00,,2013-03-11 05:52:00,